Vorticity
9 10 10 8 10 13 12 16 24 17 15 13 11 10 24 1 -2 15 10 5 9 9 9 10 11 12 12 13 14 15 15 15 14 9 10 11 11 11 9 11 12 11 20
10 11 10 6 9 12 12 17 15 3 9 23 3 15 19 9 10 9 4 6 8 10 10 11 12 14 13 14 15 15 13 11 9 10 8 9 11 12 13 11 10 11 12
5 7 12 10 11 16 25 16 6 6 16 10 4 11 13 10 8 4 7 10 10 11 12 13 14 14 12 10 10 9 9 10 11 11 11 11 10 11 14 14 13 14 11
8 8 11 14 22 24 16 8 10 16 12 18 14 10 10 5 8 12 11 14 15 14 13 12 12 14 15 14 12 11 10 10 10 11 11 11 10 10 11 12 14 13 15
14 12 15 21 22 16 9 13 19 19 15 14 9 3 12 10 10 12 10 9 10 9 12 12 12 10 10 11 12 12 10 9 9 10 11 11 10 10 10 12 13 14 15
14 16 28 33 9 16 21 18 13 -21 16 24 13 7 8 9 10 9 10 10 10 11 12 11 10 10 11 11 18 23 23 21 19 20 19 17 15 16 16 16 18 15 16
15 26 27 13 11 11 9 11 8 4 5 7 8 9 10 10 10 9 11 11 12 12 11 10 11 18 28 21 17 15 14 12 11 11 11 13 14 14 15 17 17 17 18
26 24 8 7 12 13 13 3 2 6 8 11 12 11 10 10 12 13 12 12 13 12 11 20 28 16 13 12 11 12 13 13 15 15 10 8 9 10 11 12 13 13 12
20 8 12 12 8 -3 3 9 5 10 12 11 9 8 10 12 13 13 11 16 13 11 31 16 12 9 10 9 9 13 21 22 24 30 19 13 12 12 12 12 12 14 14
18 13 5 7 11 13 5 9 11 12 10 8 10 10 14 14 12 12 16 14 14 26 13 11 10 13 15 16 13 11 17 16 19 21 21 20 20 17 15 15 13 12 14
10 11 14 12 7 9 11 11 10 9 9 11 11 11 13 12 12 15 16 14 19 11 12 14 12 14 17 18 16 14 18 15 14 14 15 17 19 21 17 15 16 11 17
3 3 11 7 8 11 11 9 11 13 12 10 10 11 13 13 15 18 13 18 11 11 13 9 9 11 18 28 28 26 24 19 11 10 10 13 17 18 25 27 13 8 10
3 11 11 7 13 12 8 9 12 11 12 11 11 12 14 13 22 15 21 13 11 14 9 9 8 13 34 28 23 20 18 14 13 14 19 21 15 14 20 18 11 10 10
12 5 10 13 11 7 9 11 12 13 13 12 11 12 14 15 21 21 18 14 14 11 10 8 9 29 19 14 9 9 14 14 12 17 22 28 24 11 9 17 20 11 8
9 12 12 9 8 11 12 13 14 14 13 12 11 12 12 21 16 23 15 14 9 8 9 9 13 29 16 11 11 11 12 13 13 11 12 19 23 23 23 21 13 27 18
12 11 8 9 13 15 15 15 15 12 12 12 12 13 15 20 15 20 15 13 7 7 9 9 13 26 18 15 13 12 10 9 10 14 21 19 17 14 21 19 26 29 27
9 9 10 16 15 15 15 16 12 13 12 12 14 13 21 14 19 18 16 12 7 6 11 10 9 15 28 20 17 13 13 15 13 15 9 1 5 18 12 20 3 12 21
9 10 16 13 13 15 13 11 14 10 13 16 13 20 16 15 16 16 17 11 6 5 12 10 8 9 13 17 22 22 19 13 11 7 10 -1 4 4 3 6 5 6 11
10 13 12 14 13 10 13 10 11 13 14 16 20 11 17 17 15 17 16 10 9 7 10 13 9 9 8 8 8 10 16 25 29 20 11 8 11 12 11 14 9 8 -4
12 13 16 14 11 13 10 9 14 14 13 17 11 16 21 20 14 14 14 11 9 8 9 10 11 9 9 9 9 9 8 9 13 23 34 23 13 10 15 19 15 14 15
14 16 14 12 10 12 7 10 15 12 16 11 16 14 21 21 13 16 13 12 10 9 9 8 8 9 9 8 8 8 8 9 10 12 19 34 26 17 10 4 12 15 19
15 13 10 10 12 10 7 11 14 13 14 16 12 12 22 18 14 13 13 12 10 9 8 8 7 6 6 6 6 6 6 7 9 9 10 13 29 28 19 17 14 6 18
10 11 12 11 11 10 8 12 13 12 13 17 12 11 22 16 20 10 14 13 11 10 8 10 9 9 11 12 12 13 14 15 14 10 9 9 10 19 28 20 17 16 10
8 13 14 10 10 9 8 13 13 13 12 15 14 11 16 20 21 14 12 14 13 12 10 12 10 11 11 9 7 8 8 8 7 7 9 12 11 10 11 13 23 26 22
7 11 9 9 10 9 8 11 12 13 12 12 15 15 16 20 21 20 12 13 14 14 15 13 9 9 9 9 9 9 10 10 10 10 10 11 9 7 8 11 10 11 11
8 8 11 9 10 8 11 8 12 12 14 11 12 15 12 13 20 21 17 16 17 17 14 9 9 10 11 9 8 9 9 9 9 10 10 10 11 10 9 8 8 8 9
Height
3048 3041 3035 3027 3020 3013 3005 2999 2993 2989 2984 2980 2978 2977 2974 2971 2968 2965 2963 2961 2958 2956 2953 2950 2947 2945 2942 2940 2938 2936 2933 2931 2924 2923 2923 2925 2927 2929 2930 2933 2935 2939 2941
3038 3030 3023 3016 3008 3000 2993 2987 2982 2979 2976 2973 2970 2967 2964 2962 2960 2957 2954 2951 2947 2943 2940 2937 2934 2932 2929 2927 2924 2922 2919 2918 2915 2909 2910 2909 2913 2915 2916 2917 2921 2924 2927
3028 3021 3012 3004 2995 2987 2981 2976 2974 2971 2968 2964 2961 2958 2955 2952 2950 2947 2943 2939 2935 2931 2927 2924 2922 2919 2916 2914 2912 2908 2906 2905 2902 2899 2896 2897 2897 2901 2903 2904 2905 2909 2913
3018 3009 2999 2991 2983 2976 2973 2969 2964 2962 2960 2956 2953 2950 2947 2944 2941 2937 2933 2928 2924 2920 2917 2914 2910 2907 2903 2900 2897 2895 2893 2890 2889 2886 2884 2883 2882 2884 2887 2890 2892 2895 2898
3005 2996 2986 2978 2971 2966 2963 2960 2957 2954 2952 2949 2946 2942 2938 2935 2930 2925 2920 2915 2911 2908 2905 2902 2898 2894 2891 2887 2883 2881 2878 2875 2874 2872 2870 2870 2870 2870 2871 2875 2877 2881 2883
2992 2984 2976 2969 2966 2962 2958 2955 2952 2948 2943 2939 2936 2933 2929 2924 2919 2914 2909 2904 2901 2897 2893 2890 2886 2881 2877 2873 2869 2866 2863 2859 2857 2857 2856 2857 2858 2859 2860 2861 2863 2866 2869
2981 2975 2969 2964 2960 2956 2952 2948 2944 2940 2937 2933 2929 2925 2920 2916 2910 2904 2899 2894 2890 2886 2881 2876 2871 2868 2863 2859 2857 2854 2851 2849 2846 2845 2844 2845 2846 2848 2849 2850 2851 2853 2856
2972 2967 2964 2959 2955 2951 2947 2943 2939 2935 2930 2926 2922 2917 2912 2907 2900 2895 2890 2885 2880 2876 2870 2865 2859 2856 2853 2848 2844 2841 2839 2837 2837 2835 2832 2833 2835 2837 2837 2838 2840 2841 2844
2965 2961 2958 2953 2949 2946 2942 2937 2932 2927 2923 2919 2913 2908 2902 2897 2891 2886 2880 2875 2870 2866 2860 2856 2850 2846 2843 2839 2834 2829 2826 2825 2824 2822 2821 2822 2823 2825 2826 2828 2829 2831 2832
2961 2956 2953 2948 2943 2939 2936 2930 2925 2920 2915 2910 2905 2900 2893 2887 2882 2877 2871 2865 2861 2856 2853 2849 2844 2838 2833 2829 2824 2820 2815 2816 2813 2811 2811 2812 2813 2815 2816 2816 2820 2821 2823
2956 2951 2947 2942 2938 2934 2929 2923 2918 2913 2908 2903 2897 2892 2885 2879 2874 2868 2863 2857 2852 2849 2845 2841 2837 2831 2825 2820 2815 2812 2808 2807 2806 2804 2804 2804 2804 2804 2805 2807 2810 2812 2814
2951 2946 2942 2937 2932 2927 2922 2917 2911 2906 2900 2895 2889 2885 2879 2873 2866 2861 2856 2851 2847 2843 2839 2834 2829 2824 2817 2811 2806 2803 2801 2800 2800 2799 2797 2797 2796 2796 2797 2798 2801 2803 2806
2945 2940 2936 2931 2926 2921 2915 2910 2904 2899 2892 2887 2882 2876 2871 2866 2860 2855 2850 2846 2843 2839 2835 2829 2822 2815 2809 2804 2801 2799 2797 2796 2795 2793 2791 2790 2790 2790 2790 2791 2794 2797 2799
2939 2935 2930 2925 2920 2915 2909 2903 2897 2891 2885 2880 2874 2868 2864 2859 2853 2849 2845 2843 2840 2836 2831 2825 2818 2811 2806 2803 2801 2799 2796 2794 2792 2789 2786 2785 2784 2785 2786 2787 2788 2790 2793
2934 2929 2925 2920 2914 2909 2903 2896 2891 2885 2879 2873 2867 2861 2855 2852 2848 2843 2841 2838 2836 2832 2828 2823 2817 2810 2806 2804 2801 2799 2796 2794 2792 2789 2786 2783 2782 2782 2782 2783 2784 2785 2787
2929 2924 2919 2914 2908 2902 2896 2891 2885 2879 2874 2868 2862 2856 2851 2846 2842 2839 2837 2835 2833 2830 2826 2821 2816 2809 2805 2803 2801 2798 2796 2794 2791 2790 2787 2785 2783 2782 2781 2781 2781 2783 2786
2924 2919 2914 2908 2902 2896 2890 2885 2880 2875 2869 2863 2857 2852 2846 2842 2839 2836 2834 2832 2831 2828 2825 2821 2816 2811 2807 2803 2800 2798 2796 2794 2792 2790 2789 2788 2786 2784 2784 2783 2784 2786 2786
2919 2914 2908 2902 2896 2891 2886 2880 2875 2869 2864 2859 2853 2848 2843 2839 2836 2834 2832 2831 2829 2827 2824 2821 2816 2813 2809 2804 2800 2798 2795 2793 2792 2791 2790 2788 2787 2787 2786 2786 2786 2786 2786
2914 2908 2903 2898 2892 2887 2882 2877 2871 2865 2860 2854 2849 2845 2840 2836 2834 2832 2830 2829 2828 2826 2824 2821 2817 2814 2811 2807 2803 2799 2797 2794 2792 2790 2789 2788 2787 2787 2786 2786 2785 2785 2785
2908 2903 2898 2894 2889 2884 2879 2874 2868 2862 2857 2852 2847 2842 2838 2835 2832 2831 2829 2828 2827 2825 2823 2821 2818 2815 2812 2809 2806 2802 2799 2797 2794 2790 2787 2785 2785 2785 2784 2783 2783 2783 2783
2904 2899 2895 2891 2886 2882 2877 2871 2866 2860 2855 2850 2845 2840 2836 2833 2831 2829 2828 2827 2826 2825 2823 2821 2819 2816 2813 2810 2808 2805 2802 2799 2797 2793 2788 2784 2783 2782 2783 2783 2783 2782 2781
2901 2897 2892 2888 2884 2880 2875 2869 2863 2858 2853 2848 2843 2839 2834 2831 2830 2828 2827 2826 2825 2824 2823 2821 2819 2817 2815 2813 2810 2807 2804 2802 2800 2796 2792 2788 2785 2783 2782 2782 2782 2782 2781
2899 2894 2890 2886 2882 2878 2873 2867 2862 2857 2852 2847 2842 2838 2833 2830 2828 2827 2826 2825 2824 2823 2822 2821 2819 2818 2816 2813 2811 2809 2807 2804 2801 2798 2796 2793 2789 2786 2784 2783 2783 2782 2782
2897 2892 2888 2884 2880 2876 2871 2866 2861 2856 2851 2846 2842 2837 2833 2829 2827 2826 2825 2824 2823 2822 2821 2820 2819 2818 2816 2814 2812 2810 2808 2806 2803 2801 2799 2796 2794 2791 2788 2786 2784 2783 2783
2894 2890 2886 2882 2878 2874 2870 2865 2860 2855 2851 2846 2842 2838 2834 2830 2827 2825 2824 2823 2822 2821 2821 2820 2819 2818 2817 2815 2813 2811 2809 2808 2805 2803 2801 2799 2797 2794 2792 2790 2788 2786 2785
2892 2888 2884 2880 2876 2872 2868 2864 2859 2855 2850 2847 2843 2839 2835 2832 2828 2825 2824 2823 2822 2821 2820 2820 2820 2819 2817 2815 2814 2812 2810 2809 2806 2804 2802 2800 2799 2797 2795 2792 2791 2789 2787